Location: Newark
(48.9233°N, 29.3439°E)
Time: 23:08:42
(UTC+00:00)

Envisat - Pass Details

Date: 27 September 2019
Orbit: 764 x 766 km, 98.1° (Epoch: 21 October)

Event Time Altitude Azimuth Distance (km) Brightness Sun altitude
Rises 16:43:27 0° 187° (S) 3,220 6.2 -9.4°
Reaches altitude 10° 16:45:54 10° 195° (SSW) 2,299 5.6 -9.8°
Maximum altitude 16:50:37 39° 263° (W) 1,147 4.6 -10.6°
Drops below altitude 10° 16:55:23 10° 332° (NNW) 2,314 6.0 -11.4°
Sets 16:57:51 0° 340° (NNW) 3,245 6.7 -11.8°
